| time (UTC) | temp F | wind direction | speed MPH | gust MPH | rain 1hr in | rain 24hr in | rain mn in | humidity % | barometer mb |
| 20260510131519 | 58 | 270 | 7.0 | 21.0 | 0.00 | 0.02 | 0.02 | 75 | 1004.5 |
| 20260510130519 | 57 | 248 | 6.0 | 16.0 | 0.00 | 0.02 | 0.02 | 77 | 1004.1 |
| 20260510125519 | 56 | 270 | 4.0 | 16.0 | 0.00 | 0.02 | 0.02 | 78 | 1004.0 |
| 20260510124518 | 56 | 248 | 5.0 | 13.0 | 0.00 | 0.02 | 0.02 | 79 | 1004.0 |
| 20260510123519 | 55 | 293 | 5.0 | 12.0 | 0.00 | 0.02 | 0.02 | 81 | 1004.0 |
| 20260510122519 | 54 | 248 | 7.0 | 22.0 | 0.00 | 0.02 | 0.02 | 82 | 1003.8 |
| 20260510121519 | 53 | 293 | 6.0 | 16.0 | 0.00 | 0.02 | 0.02 | 84 | 1003.8 |
| 20260510120519 | 53 | 248 | 5.0 | 16.0 | 0.00 | 0.02 | 0.02 | 86 | 1003.5 |
| 20260510115519 | 53 | 248 | 5.0 | 14.0 | 0.00 | 0.02 | 0.02 | 87 | 1003.5 |
| 20260510114519 | 53 | 248 | 4.0 | 14.0 | 0.00 | 0.02 | 0.02 | 88 | 1003.5 |
| 20260510113520 | 53 | 270 | 7.0 | 21.0 | 0.00 | 0.02 | 0.02 | 89 | 1003.3 |
| 20260510112519 | 53 | 248 | 5.0 | 12.0 | 0.00 | 0.02 | 0.02 | 92 | 1003.0 |
| 20260510111521 | 53 | 248 | 3.0 | 11.0 | 0.00 | 0.02 | 0.02 | 94 | 1003.0 |
| 20260510110520 | 52 | 248 | 3.0 | 14.0 | 0.00 | 0.02 | 0.02 | 96 | 1002.8 |
| 20260510105520 | 52 | 248 | 3.0 | 9.0 | 0.00 | 0.02 | 0.02 | 97 | 1002.1 |
| 20260510104520 | 52 | 248 | 1.0 | 7.0 | 0.00 | 0.02 | 0.02 | 98 | 1002.1 |
| 20260510103521 | 52 | 270 | 1.0 | 9.0 | 0.00 | 0.02 | 0.02 | 98 | 1002.3 |
| 20260510102520 | 52 | 270 | 3.0 | 12.0 | 0.00 | 0.02 | 0.02 | 98 | 1002.4 |
| 20260510101521 | 52 | 270 | 3.0 | 15.0 | 0.00 | 0.02 | 0.02 | 99 | 1002.4 |
| 20260510100520 | 52 | 248 | 3.0 | 11.0 | 0.00 | 0.02 | 0.02 | 99 | 1002.1 |
| 20260510095601 | 51 | 248 | 2.0 | 12.0 | 0.00 | 0.02 | 0.02 | 100 | 1001.9 |
| 20260510094520 | 51 | 270 | 1.0 | 9.0 | 0.00 | 0.02 | 0.02 | 100 | 1001.9 |
| 20260510093520 | 51 | 248 | 1.0 | 8.0 | 0.00 | 0.02 | 0.02 | 100 | 1001.8 |
| 20260510092542 | 51 | 248 | 1.0 | 11.0 | 0.00 | 0.02 | 0.02 | 100 | 1001.5 |
| 20260510091540 | 51 | 0.0 | 3.0 | 0.00 | 0.02 | 0.02 | 100 | 1001.5 | |
| 20260510090542 | 51 | 0.0 | 7.0 | 0.00 | 0.02 | 0.02 | 100 | 1001.4 | |
| 20260510085520 | 51 | 0.0 | 1.0 | 0.00 | 0.02 | 0.02 | 100 | 1001.3 | |
| 20260510084521 | 51 | 0.0 | 2.0 | 0.00 | 0.02 | 0.02 | 100 | 1001.3 | |
| 20260510083540 | 51 | 0.0 | 2.0 | 0.00 | 0.02 | 0.02 | 100 | 1001.3 | |
| 20260510082520 | 51 | 0.0 | 1.0 | 0.00 | 0.02 | 0.02 | 100 | 1001.3 | |
| 20260510081520 | 51 | 0.0 | 4.0 | 0.00 | 0.02 | 0.02 | 100 | 1001.3 | |
| 20260510080520 | 51 | 0.0 | 0.0 | 0.00 | 0.02 | 0.02 | 100 | 1001.3 | |
| 20260510075520 | 51 | 0.0 | 0.0 | 0.00 | 0.02 | 0.02 | 99 | 1000.9 | |
| 20260510074520 | 51 | 0.0 | 2.0 | 0.00 | 0.02 | 0.02 | 100 | 1000.9 | |
| 20260510073521 | 51 | 0.0 | 6.0 | 0.00 | 0.02 | 0.02 | 100 | 1000.9 | |
| 20260510072520 | 51 | 0.0 | 0.0 | 0.00 | 0.02 | 0.02 | 100 | 1000.9 | |
| 20260510071520 | 51 | 0.0 | 0.0 | 0.00 | 0.02 | 0.02 | 100 | 1000.9 | |
| 20260510070520 | 51 | 0.0 | 0.0 | 0.00 | 0.02 | 0.02 | 99 | 1000.9 | |
| 20260510065520 | 51 | 0.0 | 4.0 | 0.01 | 0.02 | 0.02 | 99 | 1000.9 | |
| 20260510064521 | 51 | 0.0 | 3.0 | 0.02 | 0.02 | 0.02 | 99 | 1000.9 | |
| 20260510063540 | 51 | 0.0 | 6.0 | 0.02 | 0.02 | 0.02 | 99 | 1000.4 | |
| 20260510062519 | 51 | 0.0 | 5.0 | 0.02 | 0.02 | 0.02 | 99 | 1000.6 | |
| 20260510061520 | 51 | 0.0 | 0.0 | 0.02 | 0.02 | 0.02 | 98 | 1000.6 | |
| 20260510060520 | 52 | 0.0 | 7.0 | 0.02 | 0.02 | 0.02 | 98 | 1000.7 | |
| 20260510055520 | 52 | 0.0 | 2.0 | 0.01 | 0.01 | 0.01 | 97 | 1001.0 | |
| 20260510054520 | 52 | 0.0 | 3.0 | 0.00 | 0.00 | 0.00 | 97 | 1001.0 | |
| 20260510053519 | 52 | 0.0 | 4.0 | 0.00 | 0.00 | 0.00 | 96 | 1001.1 | |
| 20260510052519 | 52 | 248 | 1.0 | 6.0 | 0.00 | 0.00 | 0.00 | 95 | 1001.1 |
| 20260510051520 | 52 | 270 | 1.0 | 9.0 | 0.00 | 0.00 | 0.00 | 94 | 1001.1 |
| 20260510050539 | 52 | 270 | 2.0 | 18.0 | 0.00 | 0.00 | 0.00 | 93 | 1000.9 |
| 20260510045519 | 52 | 0.0 | 5.0 | 0.00 | 0.00 | 0.00 | 92 | 1000.9 | |
| 20260510044519 | 52 | 225 | 1.0 | 10.0 | 0.00 | 0.00 | 0.00 | 92 | 1000.9 |
| 20260510043519 | 52 | 248 | 1.0 | 7.0 | 0.00 | 0.00 | 0.00 | 92 | 1000.7 |
| 20260510042519 | 52 | 180 | 2.0 | 12.0 | 0.00 | 0.00 | 0.00 | 92 | 1000.6 |
| 20260510041519 | 52 | 203 | 1.0 | 6.0 | 0.00 | 0.00 | 0.00 | 92 | 1000.6 |
| 20260510040519 | 52 | 158 | 2.0 | 9.0 | 0.00 | 0.00 | 0.00 | 92 | 1000.6 |
| 20260510035519 | 52 | 158 | 2.0 | 10.0 | 0.00 | 0.00 | 0.00 | 92 | 1000.7 |
| 20260510034519 | 52 | 180 | 2.0 | 7.0 | 0.00 | 0.00 | 0.00 | 92 | 1000.7 |
| 20260510033619 | 52 | 180 | 2.0 | 12.0 | 0.00 | 0.00 | 0.00 | 92 | 1000.9 |
| 20260510032541 | 52 | 203 | 1.0 | 9.0 | 0.00 | 0.00 | 0.00 | 92 | 1000.9 |
| 20260510031539 | 52 | 158 | 2.0 | 8.0 | 0.00 | 0.00 | 0.00 | 92 | 1000.9 |
| 20260510030519 | 52 | 203 | 2.0 | 12.0 | 0.00 | 0.00 | 0.00 | 92 | 1001.3 |
| 20260510025519 | 52 | 135 | 2.0 | 9.0 | 0.00 | 0.00 | 0.00 | 92 | 1001.5 |
| 20260510024519 | 52 | 180 | 2.0 | 7.0 | 0.00 | 0.00 | 0.00 | 92 | 1001.5 |
| 20260510023519 | 52 | 135 | 2.0 | 10.0 | 0.00 | 0.00 | 0.00 | 91 | 1001.5 |
| 20260510022520 | 53 | 158 | 1.0 | 10.0 | 0.00 | 0.00 | 0.00 | 91 | 1001.9 |
| 20260510021519 | 53 | 158 | 1.0 | 7.0 | 0.00 | 0.00 | 0.00 | 91 | 1001.9 |
| 20260510020519 | 53 | 158 | 2.0 | 10.0 | 0.00 | 0.00 | 0.00 | 90 | 1001.9 |
| 20260510015519 | 53 | 158 | 2.0 | 10.0 | 0.00 | 0.00 | 0.00 | 89 | 1002.0 |
| 20260510014519 | 53 | 158 | 2.0 | 10.0 | 0.00 | 0.00 | 0.00 | 88 | 1002.0 |
| 20260510013519 | 53 | 180 | 2.0 | 10.0 | 0.00 | 0.00 | 0.00 | 87 | 1002.0 |
| 20260510012519 | 53 | 180 | 1.0 | 6.0 | 0.00 | 0.00 | 0.00 | 86 | 1001.9 |
| 20260510011519 | 54 | 158 | 3.0 | 10.0 | 0.00 | 0.00 | 0.00 | 85 | 1001.9 |
| 20260510010519 | 54 | 158 | 3.0 | 11.0 | 0.00 | 0.00 | 0.00 | 84 | 1001.9 |
| 20260510005539 | 54 | 158 | 4.0 | 15.0 | 0.00 | 0.00 | 0.00 | 84 | 1001.9 |
| 20260510004519 | 54 | 180 | 1.0 | 8.0 | 0.00 | 0.00 | 0.00 | 83 | 1001.9 |
| 20260510003519 | 54 | 203 | 2.0 | 7.0 | 0.00 | 0.00 | 0.00 | 83 | 1001.9 |
| 20260510002519 | 55 | 158 | 2.0 | 8.0 | 0.00 | 0.00 | 0.00 | 82 | 1001.9 |
| 20260510001519 | 55 | 180 | 4.0 | 13.0 | 0.00 | 0.00 | 0.00 | 81 | 1001.9 |
| 20260510000519 | 55 | 203 | 2.0 | 5.0 | 0.00 | 0.00 | 0.00 | 81 | 1001.9 |
| 20260509235519 | 56 | 158 | 3.0 | 15.0 | 0.00 | 0.00 | 0.00 | 80 | 1001.9 |
| 20260509234520 | 56 | 158 | 4.0 | 11.0 | 0.00 | 0.00 | 0.00 | 78 | 1001.9 |
| 20260509233538 | 57 | 180 | 2.0 | 10.0 | 0.00 | 0.00 | 0.00 | 77 | 1001.8 |
| 20260509232518 | 57 | 158 | 2.0 | 7.0 | 0.00 | 0.00 | 0.00 | 76 | 1001.9 |
| 20260509231540 | 57 | 203 | 3.0 | 20.0 | 0.00 | 0.00 | 0.00 | 75 | 1001.9 |
| 20260509230518 | 58 | 180 | 3.0 | 10.0 | 0.00 | 0.00 | 0.00 | 74 | 1001.9 |
| 20260509225520 | 58 | 248 | 3.0 | 8.0 | 0.00 | 0.00 | 0.00 | 74 | 1002.0 |
| 20260509224520 | 59 | 180 | 3.0 | 14.0 | 0.00 | 0.00 | 0.00 | 73 | 1002.0 |
| 20260509223519 | 59 | 158 | 4.0 | 15.0 | 0.00 | 0.00 | 0.00 | 72 | 1002.2 |
| 20260509222519 | 60 | 225 | 3.0 | 12.0 | 0.00 | 0.00 | 0.00 | 71 | 1002.2 |
| 20260509221540 | 60 | 158 | 7.0 | 15.0 | 0.00 | 0.00 | 0.00 | 69 | 1002.2 |
| 20260509220519 | 61 | 158 | 4.0 | 18.0 | 0.00 | 0.00 | 0.00 | 67 | 1001.9 |
| 20260509215540 | 61 | 158 | 4.0 | 14.0 | 0.00 | 0.00 | 0.00 | 66 | 1001.9 |
| 20260509214539 | 62 | 225 | 4.0 | 12.0 | 0.00 | 0.00 | 0.00 | 64 | 1001.9 |
| 20260509213539 | 63 | 180 | 2.0 | 6.0 | 0.00 | 0.00 | 0.00 | 64 | 1002.0 |
| 20260509212519 | 63 | 158 | 3.0 | 8.0 | 0.00 | 0.00 | 0.00 | 62 | 1002.2 |
| 20260509211520 | 63 | 225 | 3.0 | 7.0 | 0.00 | 0.00 | 0.00 | 61 | 1002.2 |
| 20260509210619 | 64 | 225 | 3.0 | 8.0 | 0.00 | 0.00 | 0.00 | 59 | 1002.3 |
| 20260509205519 | 65 | 225 | 2.0 | 8.0 | 0.00 | 0.00 | 0.00 | 59 | 1002.2 |
| 20260509204519 | 65 | 180 | 2.0 | 8.0 | 0.00 | 0.00 | 0.00 | 56 | 1002.2 |
| 20260509203519 | 65 | 180 | 2.0 | 9.0 | 0.00 | 0.00 | 0.00 | 54 | 1002.3 |
| 20260509202519 | 66 | 203 | 3.0 | 12.0 | 0.00 | 0.00 | 0.00 | 51 | 1002.5 |
| 20260509201519 | 66 | 203 | 2.0 | 12.0 | 0.00 | 0.00 | 0.00 | 50 | 1002.5 |
| 20260509200519 | 67 | 180 | 2.0 | 9.0 | 0.00 | 0.00 | 0.00 | 48 | 1002.5 |
| 20260509195519 | 67 | 225 | 3.0 | 10.0 | 0.00 | 0.00 | 0.00 | 47 | 1002.5 |
| 20260509194520 | 67 | 158 | 4.0 | 9.0 | 0.00 | 0.00 | 0.00 | 45 | 1002.5 |
| 20260509193619 | 67 | 180 | 3.0 | 12.0 | 0.00 | 0.00 | 0.00 | 43 | 1002.5 |
| 20260509192519 | 68 | 248 | 4.0 | 14.0 | 0.00 | 0.00 | 0.00 | 43 | 1002.9 |
| 20260509191520 | 68 | 225 | 4.0 | 12.0 | 0.00 | 0.00 | 0.00 | 43 | 1002.9 |
| 20260509190519 | 68 | 158 | 5.0 | 16.0 | 0.00 | 0.00 | 0.00 | 43 | 1003.0 |
| 20260509185518 | 68 | 158 | 3.0 | 10.0 | 0.00 | 0.00 | 0.00 | 41 | 1003.0 |
| 20260509184519 | 67 | 248 | 3.0 | 19.0 | 0.00 | 0.00 | 0.00 | 41 | 1003.0 |
| 20260509183519 | 68 | 158 | 5.0 | 15.0 | 0.00 | 0.00 | 0.00 | 41 | 1003.1 |
| 20260509182520 | 68 | 248 | 5.0 | 24.0 | 0.00 | 0.00 | 0.00 | 41 | 1003.5 |
| 20260509181518 | 68 | 248 | 5.0 | 15.0 | 0.00 | 0.00 | 0.00 | 42 | 1003.5 |
| 20260509180519 | 67 | 158 | 3.0 | 14.0 | 0.00 | 0.00 | 0.00 | 43 | 1003.5 |
| 20260509175519 | 67 | 203 | 2.0 | 9.0 | 0.00 | 0.00 | 0.00 | 43 | 1004.0 |
| 20260509174520 | 67 | 225 | 2.0 | 7.0 | 0.00 | 0.00 | 0.00 | 43 | 1004.0 |
| 20260509173538 | 66 | 248 | 4.0 | 13.0 | 0.00 | 0.00 | 0.00 | 44 | 1004.1 |
| 20260509172518 | 67 | 158 | 7.0 | 19.0 | 0.00 | 0.00 | 0.00 | 42 | 1004.4 |
| 20260509171519 | 67 | 248 | 2.0 | 11.0 | 0.00 | 0.00 | 0.00 | 44 | 1004.4 |
| 20260509170519 | 67 | 158 | 5.0 | 14.0 | 0.00 | 0.00 | 0.00 | 43 | 1004.6 |
| 20260509165518 | 67 | 225 | 4.0 | 15.0 | 0.00 | 0.00 | 0.00 | 45 | 1004.8 |
| 20260509164520 | 67 | 203 | 4.0 | 15.0 | 0.00 | 0.00 | 0.00 | 45 | 1004.8 |
| 20260509163559 | 66 | 225 | 4.0 | 13.0 | 0.00 | 0.00 | 0.00 | 46 | 1005.0 |
| 20260509162518 | 66 | 158 | 5.0 | 17.0 | 0.00 | 0.00 | 0.00 | 44 | 1005.3 |
| 20260509161521 | 66 | 225 | 2.0 | 23.0 | 0.00 | 0.00 | 0.00 | 46 | 1005.3 |
| 20260509160520 | 66 | 158 | 2.0 | 9.0 | 0.00 | 0.00 | 0.00 | 47 | 1005.5 |
| 20260509155540 | 65 | 225 | 1.0 | 7.0 | 0.00 | 0.00 | 0.00 | 48 | 1005.9 |
| 20260509154520 | 65 | 158 | 3.0 | 19.0 | 0.00 | 0.00 | 0.00 | 47 | 1005.9 |
| 20260509153520 | 65 | 158 | 3.0 | 17.0 | 0.00 | 0.00 | 0.00 | 48 | 1006.1 |
| 20260509152520 | 64 | 248 | 3.0 | 10.0 | 0.00 | 0.00 | 0.00 | 48 | 1006.1 |
| 20260509151520 | 64 | 248 | 5.0 | 18.0 | 0.00 | 0.00 | 0.00 | 49 | 1006.1 |
| 20260509150520 | 64 | 248 | 3.0 | 13.0 | 0.00 | 0.00 | 0.00 | 52 | 1006.2 |
| 20260509145520 | 63 | 203 | 1.0 | 12.0 | 0.00 | 0.00 | 0.00 | 52 | 1006.3 |
| 20260509144520 | 63 | 225 | 1.0 | 4.0 | 0.00 | 0.00 | 0.00 | 53 | 1006.3 |
| 20260509143520 | 62 | 248 | 1.0 | 6.0 | 0.00 | 0.00 | 0.00 | 55 | 1006.3 |
| 20260509142540 | 62 | 248 | 2.0 | 8.0 | 0.00 | 0.00 | 0.00 | 55 | 1006.4 |
| 20260509141521 | 61 | 225 | 2.0 | 9.0 | 0.00 | 0.00 | 0.00 | 57 | 1006.4 |
| 20260509140520 | 61 | 158 | 3.0 | 12.0 | 0.00 | 0.00 | 0.00 | 56 | 1006.6 |
| 20260509135521 | 60 | 225 | 2.0 | 7.0 | 0.00 | 0.00 | 0.00 | 58 | 1006.6 |
| 20260509134520 | 59 | 0.0 | 3.0 | 0.00 | 0.00 | 0.00 | 58 | 1006.6 | |
| 20260509133520 | 59 | 225 | 2.0 | 9.0 | 0.00 | 0.00 | 0.00 | 62 | 1006.7 |
| 20260509132520 | 58 | 225 | 2.0 | 9.0 | 0.00 | 0.00 | 0.00 | 62 | 1006.7 |